Location: Ozark
(37.5425°N, 88.7628°W)
Time: 00:32:13
(UTC+00:00)

COSMOS 2428 - Pass Details

Date: 26 January 2020
Orbit: 844 x 858 km, 70.9° (Epoch: 24 February)

Event Time Altitude Azimuth Distance (km) Brightness Sun altitude
Rises 12:05:07 0° 183° (S) 3,396 6.0 -11.8°
Reaches altitude 10° 12:07:39 10° 177° (S) 2,467 5.4 -11.3°
Maximum altitude 12:13:01 45° 106° (ESE) 1,142 4.0 -10.3°
Drops below altitude 10° 12:18:26 10° 35° (NE) 2,490 5.4 -9.2°
Sets 12:20:59 0° 29° (NNE) 3,432 6.0 -8.7°
